Вернуться в каталог

COSMOS 1124 DEB

LostHEO
NORAD 12816·DEBRIS·🇷🇺 Russia

Запущен Aug 28, 1979 с Plesetsk Cosmodrome

Loading…

Ближайшие Пролёты (ближайшие 24 часа)

TLE

УстаревшееSource: Space-Track

Эпоха: May 28, 2019, 12:06 UTC

1 12816U 79077F   19148.50430653  .00000084  00000-0  00000+0 0  9998
2 12816  66.0752 279.2507 6161764  64.2129 349.3076  2.11962718299923

Отслеживайте COSMOS 1124 DEB в реальном времени с AllMySat

Download on the App Store